Погода в Саквилле

Канада     45°53′47″N   64°22′41″W
темп.,
°C
ветер,
м/с
пор.,
м/с
влажн.,
%
обл.,
%
осадки,
мм/ч
давл.,
гПа
погр.,
м
24 октября, вс
вс2400:00+13ссз2596100 0.1 1006372
03:00+12зсз4897100 2.4 1004575
06:00+9сз5994100 6.8 1005564
09:00+7зсз61188100 7.3 1007644
12:00+7з610705 0.0 1008939
15:00+10з7115782 0.0 10091488
18:00+8зсз71362100 0.0 10101005
21:00+7з7136462 0.0 1012875
25 октября, пн
пн2500:00+5з614696 0.0 1014675
03:00+4зсз614735 0.0 1016613
06:00+3з5127546 0.0 1018426
09:00+4з41076100 0.0 1019382
12:00+9з4564100 0.0 1019612
15:00+10з3462100 0.0 10181014
18:00+8з3671100 0.0 1019375
21:00+7з267792 0.0 1020169
26 октября, вт
вт2600:00+4зсз2289100 0.0 102017
03:00+4з119373 0.0 102012
06:00+3ссз1193100 0.0 101916
09:00+5с138490 0.0 101993
12:00+11в346699 0.0 10181049
15:00+11всв4662100 0.0 10151157
18:00+9св4972100 0.0 1015514
21:00+7всв41077100 0.0 1014635
27 октября, ср
ср2700:00+7св51076100 0.0 1014759
03:00+8св61171100 0.0 1012870
06:00+8св61273100 0.0 1011939
09:00+9св71276100 0.0 10121093
12:00+10св71369100 0.0 10111202
15:00+10св71369100 0.1 10101269
18:00+9св81474100 0.0 10101425
21:00+9ссв71371100 0.1 10111333
28 октября, чт
чт2800:00+9ссв71371100 0.0 10111432
03:00+9ссв71367100 0.0 10101449
06:00+9ссв71372100 0.0 10101300
09:00+9ссв71370100 0.1 10111348
12:00+10ссв71266100 0.1 10121433
15:00+10ссв71264100 0.1 10121353
18:00+8ссв61270100 0.0 10131261
21:00+8ссв61274100 0.0 10141329